Location: Caracas
(10.5033°N, 66.8422°W)
Time: 00:11:33
(UTC-04:00)

Vanguard 2 - Visible Passes

Search period start: 18 June 2018 00:00
Search period end: 28 June 2018 00:00
Orbit: 553 x 2939 km, 32.9° (Epoch: 17 June)

Date Brightness Start Highest point End Pass type
(mag) Time Alt. Az. Time Alt. Az. Time Alt. Az.
18 Jun 9.4 03:06:49 29° NNE 03:06:49 29° NNE 03:09:19 10° NE visible
19 Jun 9.3 03:23:36 29° N 03:23:36 29° N 03:26:57 10° NNE visible
20 Jun 9.6 03:40:20 22° NNW 03:40:20 22° NNW 03:44:23 10° NNE visible
20 Jun 11.5 21:16:11 10° S 21:18:17 12° S 21:18:17 12° S visible
21 Jun 10.7 01:55:37 12° NE 01:55:37 12° NE 01:56:00 10° NE visible
21 Jun 10.0 03:57:02 14° NW 03:58:21 15° NNW 04:01:34 10° N visible
21 Jun 11.4 21:32:34 10° SSW 21:35:41 15° S 21:35:41 15° S visible
22 Jun 10.3 02:12:16 19° NNE 02:12:16 19° NNE 02:13:48 10° NE visible
22 Jun 10.2 04:15:45 10° NW 04:16:45 10° NNW 04:17:41 10° NNW visible
22 Jun 11.4 19:45:37 10° SSE 19:47:40 10° SSE 19:49:41 10° SSE visible
22 Jun 11.4 21:49:30 10° SSW 21:53:13 17° SSW 21:53:13 17° SSW visible
23 Jun 10.1 02:28:51 24° N 02:28:51 24° N 02:31:28 10° NNE visible
23 Jun 11.2 19:58:57 10° S 20:07:23 15° SSE 20:09:25 14° SSE visible
23 Jun 11.3 22:06:48 10° SSW 22:10:54 19° SSW 22:10:54 19° SSW visible
24 Jun 10.1 02:45:22 23° NNW 02:45:22 23° NNW 02:49:01 10° NNE visible
24 Jun 11.0 20:15:06 10° SSW 20:26:44 21° SSE 20:27:18 21° SSE visible
24 Jun 11.3 22:24:24 10° SW 22:28:48 21° SSW 22:28:48 21° SSW visible
25 Jun 10.3 03:01:49 18° NNW 03:01:56 18° NNW 03:06:28 10° NNE visible
25 Jun 10.7 20:31:53 10° SSW 20:45:24 28° SSE 20:45:24 28° SSE visible
25 Jun 11.3 22:42:18 10° SW 22:46:56 22° SW 22:46:56 22° SW visible
26 Jun 10.7 01:16:49 16° NE 01:16:49 16° NE 01:18:06 10° NE visible
26 Jun 10.5 03:18:11 12° NW 03:20:27 14° NNW 03:23:47 10° N visible
26 Jun 10.5 20:49:03 10° SSW 21:03:48 37° SSE 21:03:48 37° SSE visible
26 Jun 11.2 23:00:31 10° SW 23:05:20 23° SW 23:05:20 23° SW visible
27 Jun 10.5 01:33:06 22° NNE 01:33:06 22° NNE 01:35:51 10° NNE visible
27 Jun 10.6 03:37:27 10° NNW 03:39:10 11° NNW 03:40:44 10° N visible
27 Jun 11.2 18:58:41 10° S 19:09:00 18° SSE 19:19:02 10° ESE visible
27 Jun 10.2 21:06:30 10° SW 21:22:31 48° SSE 21:22:31 48° SSE visible
27 Jun 11.2 23:19:03 10° WSW 23:47:53 - NE 23:24:06 23° WSW visible
